Regional Weather Roundup
Issued by NWS Glasgow, MT

Home | Current Version | Previous Version | Text Only | Print | Product List | Glossary On
Versions: 1 2 3 4 5 6 7 8 9 10 11 12 13 14 15 16 17 18 19 20 21 22 23 24 25 26 27 28 29 30 31 32 33 34 35 36 37 38 39 40 41 42 43 44 45
000
ASUS45 KGGW 300115
RWRGGW
HOURLY WEATHER ROUNDUP FOR NORTHEAST MONTANA
NATIONAL WEATHER SERVICE GLASGOW MONTANA
600 PM MST THU JAN 29 2015

NOTE: "FAIR" INDICATES FEW OR NO CLOUDS BELOW 12,000 FEET WITH NO
SIGNIFICANT WEATHER AND/OR OBSTRUCTIONS TO VISISBILITY.

NORTHEAST MONTANA


CITY           SKY/WX    TMP DP  RH WIND       PRES   REMARKS
GLASGOW        CLEAR     32  28  85 E13       30.25F
PLENTYWOOD       N/A     24  22  91 E7          N/A
WOLF POINT     CLEAR     30  24  78 NE6       30.30F
JORDAN           N/A     35  25  66 SE5       30.25F
WINNETT          N/A     39  29  67 S7G18       N/A
SIDNEY         CLEAR     28  23  80 CALM      30.36F
GLENDIVE       CLEAR     36  27  69 SE6       30.33F
MALTA            N/A     30  30 100 E3          N/A

FORT PECK REPORTS


CITY           SKY/WX    TMP DP  RH WIND       PRES   REMARKS
FORT PECK        N/A     37  27  67 SE12        N/A
THE PINES        N/A     38  29  70 S6          N/A

SOUTHEAST MONTANA


CITY           SKY/WX    TMP DP  RH WIND       PRES   REMARKS
BILLINGS       PTCLDY    42  28  57 W12       30.25F
MILES CITY     CLEAR     38  23  55 SE8       30.29F
BAKER          CLEAR     27  17  66 S6        30.34F
LIVINGSTON     PTCLDY    41  21  44 W13       30.25S

CENTRAL MONTANA


CITY           SKY/WX    TMP DP  RH WIND       PRES   REMARKS
HAVRE          PTCLDY    33  28  81 CALM      30.19F
LEWISTOWN      MOCLDY    38  23  55 S5        30.21F
GREAT FALLS    MOCLDY    41  20  43 S10       30.20S
CUT BANK       MOCLDY    40  13  33 W15       30.19R
HELENA         MOCLDY    37  28  70 W6        30.28S
BUTTE          MOCLDY    30  23  75 SE5       30.30R
BOZEMAN        MOCLDY    35  25  66 S3        30.30S

WESTERN MONTANA


CITY           SKY/WX    TMP DP  RH WIND       PRES   REMARKS
MISSOULA       MOCLDY    32  25  75 NE3       30.35R
KALISPELL      NOT AVBL

NORTH DAKOTA


CITY           SKY/WX    TMP DP  RH WIND       PRES   REMARKS
WILLISTON      CLEAR     26  20  77 SE7       30.36F
DICKINSON      CLEAR     27  18  69 E9        30.35S
MINOT          CLEAR     13   9  84 E6        30.45S
BISMARCK       CLEAR     21  18  88 E7        30.47S

SOUTHERN SASKATCHEWAN


CITY           SKY/WX    TMP DP  RH WIND       PRES   REMARKS
REGINA         MOCLDY    14  12  92 SE14      30.32F WCI  -1
MOOSE JAW      MOCLDY    19  19 100 SE12      30.28F
ESTEVAN        MOCLDY    16  12  86 E12       30.37F
SWIFT CURRENT  PTCLDY    27  25  93 S12       30.18F




USA.gov is the U.S. government's official web portal to all federal, state and local government web resources and services.